Weather reports worldwide

Advertisment
Koblenz/Falkensteinkaserne, Germany (10516): temperature & dewpoint: 20.09.2018 05:00:00 - 26.09.2018 05:00:00 (CEST)Koblenz/Falkensteinkaserne, Germany (10516): wind speed & gusts: 20.09.2018 05:00:00 - 26.09.2018 05:00:00 (CEST)Koblenz/Falkensteinkaserne, Germany (10516): wind direction: 20.09.2018 05:00:00 - 26.09.2018 05:00:00 (CEST)Koblenz/Falkensteinkaserne, Germany (10516): reduced air pressure: 20.09.2018 05:00:00 - 26.09.2018 05:00:00 (CEST)Koblenz/Falkensteinkaserne, Germany (10516): visibility: 20.09.2018 05:00:00 - 26.09.2018 05:00:00 (CEST)
Date & Time tt [°C] td [°C] ff [km/h] ff [kn] fx [km/h] fx [kn] dd ppp [hPa] vv [km]
26.09.2018 05:00:00 5,4 4,0 7 4 - - SSE 1036,4 -
26.09.2018 04:00:00 5,4 4,2 4 2 - - N 1037,0 -
26.09.2018 03:00:00 6,2 4,5 7 4 - - N 1037,2 -
26.09.2018 02:00:00 6,6 4,3 7 4 - - N 1037,3 -
26.09.2018 01:00:00 7,3 4,4 7 4 - - S 1038,2 -
26.09.2018 00:00:00 7,8 4,5 7 4 - - SSE 1038,0 -
25.09.2018 23:00:00 8,5 4,4 7 4 - - N 1038,7 -
25.09.2018 22:00:00 9,3 5,5 4 2 - - SSW 1038,7 -
25.09.2018 21:00:00 10,2 3,3 4 2 - - N 1038,6 -
25.09.2018 20:00:00 12,0 1,7 4 2 - - E 1038,0 -
25.09.2018 19:00:00 14,1 1,3 7 4 - - ESE 1037,4 -
25.09.2018 18:00:00 15,1 0,8 7 4 - - SE 1037,5 -
25.09.2018 17:00:00 15,8 2,1 7 4 - - NE 1037,7 -
25.09.2018 16:00:00 15,6 0,9 4 2 - - NE 1038,4 -
25.09.2018 15:00:00 14,5 2,8 7 4 - - NW 1039,3 -
25.09.2018 14:00:00 14,6 3,2 4 2 - - E 1039,6 -
25.09.2018 13:00:00 11,3 5,5 4 2 - - N 1040,1 -
25.09.2018 12:00:00 8,2 5,4 4 2 - - N 1040,8 -
25.09.2018 11:00:00 6,2 5,4 4 2 - - N 1040,8 -
25.09.2018 10:00:00 5,7 5,0 4 2 - - N 1040,3 -
25.09.2018 09:00:00 5,3 4,7 4 2 - - WNW 1039,7 -
25.09.2018 08:00:00 5,4 4,7 4 2 - - N 1039,6 -
25.09.2018 07:00:00 5,6 4,8 7 4 - - S 1039,1 -
25.09.2018 06:00:00 5,8 4,9 4 2 - - SW 1038,9 -
25.09.2018 05:00:00 6,0 5,2 4 2 - - N 1038,8 -
25.09.2018 04:00:00 6,1 5,1 4 2 - - N 1038,4 -
25.09.2018 03:00:00 6,6 5,5 4 2 - - N 1038,1 -
25.09.2018 02:00:00 7,1 6,0 7 4 - - SSE 1038,1 -
25.09.2018 01:00:00 6,7 5,2 4 2 - - N 1037,8 -
25.09.2018 00:00:00 7,5 5,5 7 4 - - WNW 1037,8 -
24.09.2018 23:00:00 8,7 6,8 7 4 - - SW 1036,9 -
24.09.2018 22:00:00 8,9 6,5 4 2 - - N 1036,6 -
24.09.2018 21:00:00 9,6 6,2 4 2 - - SW 1035,9 30
24.09.2018 20:00:00 10,2 5,7 4 2 - - N 1035,0 30
24.09.2018 19:00:00 11,3 5,7 11 6 - - W 1034,6 30
24.09.2018 18:00:00 11,4 5,9 11 6 - - W 1034,3 30
24.09.2018 17:00:00 13,6 4,3 14 8 - - NW 1034,0 30
24.09.2018 16:00:00 14,3 3,6 14 8 - - NNW 1033,6 30
24.09.2018 15:00:00 14,0 4,4 14 8 - - NW 1034,2 30
24.09.2018 14:00:00 11,7 5,9 18 10 - - NW 1034,7 18
24.09.2018 13:00:00 14,0 2,9 14 8 - - NNW 1034,0 30
24.09.2018 12:00:00 13,5 4,6 14 8 - - NNW 1034,1 30
24.09.2018 11:00:00 11,9 5,0 11 6 - - NW 1034,2 30
24.09.2018 10:00:00 10,7 4,6 4 2 - - N 1033,4 30
24.09.2018 09:00:00 9,2 4,3 4 2 - - N 1032,7 30
24.09.2018 08:00:00 8,0 5,3 7 4 - - N 1031,8 20
24.09.2018 07:00:00 8,7 5,8 4 2 - - N 1030,9 20
24.09.2018 06:00:00 9,0 6,1 4 2 - - N 1029,9 -
24.09.2018 05:00:00 9,2 6,6 4 2 - - N 1029,2 -
24.09.2018 04:00:00 9,5 6,8 4 2 - - N 1028,3 -
24.09.2018 03:00:00 9,0 6,8 7 4 - - N 1027,4 -
24.09.2018 02:00:00 9,6 7,0 7 4 - - WNW 1026,4 -
24.09.2018 01:00:00 9,7 7,2 11 6 - - WNW 1024,8 -
24.09.2018 00:00:00 9,5 7,0 11 6 - - WNW 1023,3 -
23.09.2018 23:00:00 9,6 6,2 11 6 - - NNW 1022,0 -
23.09.2018 22:00:00 9,5 6,1 11 6 - - NNW 1020,2 -
23.09.2018 21:00:00 9,9 6,6 18 10 - - NNW 1017,9 -
23.09.2018 20:00:00 10,7 8,2 14 8 - - NW 1015,1 -
23.09.2018 19:00:00 11,6 7,8 22 12 - - NNW 1012,1 -
23.09.2018 18:00:00 12,5 9,4 18 10 - - NW 1009,8 -
23.09.2018 17:00:00 13,4 10,9 18 10 - - NW 1007,5 -
23.09.2018 16:00:00 13,9 12,3 18 10 54 29 NW 1005,9 -
23.09.2018 15:00:00 20,1 18,5 11 6 - - SW 1002,4 -
23.09.2018 14:00:00 16,4 15,6 4 2 - - SE 1004,8 -
23.09.2018 13:00:00 14,6 13,6 4 2 - - E 1007,7 -
23.09.2018 12:00:00 13,8 12,5 4 2 - - N 1009,4 -
23.09.2018 11:00:00 13,0 12,1 4 2 - - SSE 1010,5 -
23.09.2018 10:00:00 12,3 11,5 4 2 - - N 1011,2 -
23.09.2018 09:00:00 11,8 10,9 4 2 - - N 1011,5 -
23.09.2018 08:00:00 11,5 10,6 4 2 - - E 1012,0 -
23.09.2018 07:00:00 11,3 10,3 7 4 - - ESE 1012,6 -
23.09.2018 06:00:00 11,3 10,2 4 2 - - ENE 1013,5 -
23.09.2018 05:00:00 11,3 9,8 4 2 - - N 1014,6 -
23.09.2018 04:00:00 11,2 9,8 4 2 - - N 1016,1 -
23.09.2018 03:00:00 11,3 9,6 7 4 - - N 1017,3 -
23.09.2018 02:00:00 11,4 10,0 4 2 - - SSE 1018,2 -
23.09.2018 01:00:00 11,5 10,2 7 4 - - SE 1019,0 -
23.09.2018 00:00:00 11,6 10,4 7 4 - - N 1019,3 -
22.09.2018 23:00:00 11,6 10,3 4 2 - - N 1020,1 -
22.09.2018 22:00:00 11,7 9,9 4 2 - - N 1020,3 -
22.09.2018 21:00:00 11,9 10,2 4 2 - - N 1020,6 -
22.09.2018 20:00:00 12,2 9,9 4 2 - - N 1020,6 -
22.09.2018 19:00:00 13,1 8,8 7 4 - - N 1020,7 -
22.09.2018 18:00:00 15,1 5,5 11 6 - - WSW 1020,3 -
22.09.2018 17:00:00 17,0 5,1 14 8 - - SW 1020,1 -
22.09.2018 16:00:00 17,0 5,8 11 6 - - SW 1020,5 -
22.09.2018 15:00:00 17,2 6,5 11 6 - - SW 1020,8 -
22.09.2018 14:00:00 16,8 6,2 11 6 - - SW 1021,2 -
22.09.2018 13:00:00 16,8 6,9 11 6 - - SW 1021,6 -
22.09.2018 12:00:00 13,9 6,1 7 4 - - SSW 1022,4 -
22.09.2018 11:00:00 13,1 6,1 7 4 - - S 1023,3 -
22.09.2018 10:00:00 12,2 6,0 7 4 - - SSW 1022,9 -
22.09.2018 09:00:00 11,3 5,8 7 4 - - SSW 1022,9 -
22.09.2018 08:00:00 10,8 5,7 7 4 - - SSW 1022,5 -
22.09.2018 07:00:00 10,5 5,2 7 4 - - W 1021,9 -
22.09.2018 06:00:00 11,0 5,5 7 4 - - WSW 1021,4 -
22.09.2018 05:00:00 11,3 5,0 11 6 - - SW 1021,4 -
22.09.2018 04:00:00 11,5 4,5 11 6 - - SW 1021,1 -
22.09.2018 03:00:00 11,8 4,7 7 4 - - SW 1020,4 -
22.09.2018 02:00:00 12,3 4,6 11 6 - - SW 1020,1 -
22.09.2018 01:00:00 12,1 4,4 7 4 - - WSW 1019,8 -
22.09.2018 00:00:00 12,5 4,4 7 4 - - SW 1019,2 -
21.09.2018 23:00:00 13,0 4,3 7 4 - - SSW 1018,4 -
21.09.2018 22:00:00 12,9 5,1 7 4 - - SSW 1017,6 -
21.09.2018 21:00:00 13,3 3,6 7 4 - - WSW 1016,4 25
21.09.2018 20:00:00 14,5 3,3 7 4 - - W 1014,9 30
21.09.2018 19:00:00 15,4 4,9 11 6 - - WSW 1014,0 30
21.09.2018 18:00:00 15,7 4,2 14 8 - - WNW 1013,3 30
21.09.2018 17:00:00 15,7 8,1 11 6 - - WNW 1012,2 20
21.09.2018 16:00:00 14,7 11,9 11 6 - - SSW 1010,9 20
21.09.2018 15:00:00 13,6 11,8 7 4 - - SSW 1011,1 10
21.09.2018 14:00:00 13,8 11,8 7 4 - - N 1010,5 5
21.09.2018 13:00:00 21,3 12,8 18 10 - - WSW 1008,1 30
21.09.2018 12:00:00 22,4 10,9 14 8 50 27 SW 1007,8 30
21.09.2018 11:00:00 22,7 10,7 11 6 - - SW 1007,7 30
21.09.2018 10:00:00 21,8 12,0 14 8 - - SSW 1007,5 30
21.09.2018 09:00:00 20,2 12,4 7 4 - - SW 1008,1 30
21.09.2018 08:00:00 17,7 11,9 4 2 - - NW 1007,9 30
21.09.2018 07:00:00 18,9 12,2 7 4 - - N 1007,8 25
21.09.2018 06:00:00 20,1 12,2 7 4 - - S 1008,3 -
21.09.2018 05:00:00 16,3 11,9 4 2 - - N 1009,4 -
21.09.2018 04:00:00 18,1 12,1 4 2 - - N 1010,1 -
21.09.2018 03:00:00 18,1 12,0 4 2 - - SE 1010,8 -
21.09.2018 02:00:00 18,5 11,5 4 2 - - SE 1011,3 -
21.09.2018 01:00:00 18,4 11,1 7 4 - - N 1011,9 -
21.09.2018 00:00:00 18,3 10,9 4 2 - - SSE 1012,5 -
20.09.2018 23:00:00 19,5 10,6 7 4 - - N 1013,3 -
20.09.2018 22:00:00 20,1 10,6 4 2 - - N 1013,8 -
20.09.2018 21:00:00 21,4 10,2 4 2 - - S 1014,0 30
20.09.2018 20:00:00 23,4 9,8 7 4 - - WSW 1014,3 30
20.09.2018 19:00:00 25,4 9,5 7 4 - - WSW 1014,3 30
20.09.2018 18:00:00 26,6 8,1 11 6 - - WSW 1014,9 30
20.09.2018 17:00:00 27,1 7,0 11 6 - - WSW 1015,6 30
20.09.2018 16:00:00 27,8 8,3 11 6 - - WSW 1016,2 30
20.09.2018 15:00:00 27,4 9,8 11 6 - - SW 1016,9 30
20.09.2018 14:00:00 26,0 11,4 11 6 - - WSW 1017,7 20
20.09.2018 13:00:00 24,7 12,1 11 6 - - SW 1018,5 20
20.09.2018 12:00:00 23,3 11,9 11 6 - - SW 1019,2 20
20.09.2018 11:00:00 21,5 12,6 7 4 - - SSW 1019,7 20
20.09.2018 10:00:00 18,8 12,6 4 2 - - N 1019,9 20
20.09.2018 09:00:00 16,2 13,0 7 4 - - SSE 1019,8 20
20.09.2018 08:00:00 14,2 12,9 4 2 - - SSW 1020,1 20
20.09.2018 07:00:00 14,1 12,8 4 2 - - N 1019,5 15
20.09.2018 06:00:00 14,3 12,8 4 2 - - N 1019,6 -
20.09.2018 05:00:00 15,3 13,3 4 2 - - SSW 1019,4 -

tt = temperature
td = dewpoint
ff = wind speed
fx = gusts
dd = wind direction
ppp = reduced air pressure
vv = visibility

Next stations